VTD754 UWLL-UWSG

Flight info

Callsign VTD754
Flight time 1h 8m
Altitude 15000
Route NEPNI T789 OGRER
Aircraft DA42/L-L/C

Departure

Time 2026-04-25 11:51
Airport Ulyanovsk Baratayevka Airport (UWLL)

Arrival

Time 2026-04-25 12:59
Airport Gagarin International Airport (UWSG)
Time Latitude Longitude Altitude Speed Heading
2026-04-25 11:37 54.27157 48.23656 399 ft 0 kts 32°
2026-04-25 11:45 54.27159 48.23658 399 ft 3 kts 30°
2026-04-25 11:45 54.27189 48.23620 399 ft 9 kts 301°
2026-04-25 11:46 54.27245 48.23644 399 ft 15 kts 32°
2026-04-25 11:46 54.27335 48.23740 399 ft 17 kts 29°
2026-04-25 11:46 54.27361 48.23767 399 ft 7 kts 30°
2026-04-25 11:46 54.27473 48.23889 400 ft 20 kts 33°
2026-04-25 11:47 54.27586 48.23978 399 ft 12 kts 315°
2026-04-25 11:47 54.27651 48.23804 399 ft 21 kts 304°
2026-04-25 11:47 54.27683 48.23630 399 ft 15 kts 260°
2026-04-25 11:47 54.27663 48.23490 400 ft 0 kts 261°
2026-04-25 11:48 54.27663 48.23485 400 ft 6 kts 262°
2026-04-25 11:48 54.27640 48.23310 401 ft 18 kts 262°
2026-04-25 11:48 54.27605 48.23190 403 ft 1 kts 210°
2026-04-25 11:50 54.27398 48.22962 402 ft 67 kts 221°
2026-04-25 11:50 54.26911 48.22450 511 ft 92 kts 216°
2026-04-25 11:50 54.26316 48.21913 726 ft 99 kts 216°
2026-04-25 11:50 54.25689 48.21426 937 ft 101 kts 214°
2026-04-25 11:51 54.25058 48.20992 1247 ft 97 kts 213°
2026-04-25 11:51 54.24421 48.20589 1509 ft 99 kts 211°
2026-04-25 11:51 54.23784 48.20144 1698 ft 95 kts 227°
2026-04-25 11:51 54.23448 48.19290 1932 ft 85 kts 251°
2026-04-25 11:52 54.23048 48.18504 2149 ft 91 kts 230°
2026-04-25 11:52 54.22532 48.17861 2369 ft 93 kts 228°
2026-04-25 11:52 54.21994 48.17237 2579 ft 94 kts 225°
2026-04-25 11:52 54.21372 48.16771 2806 ft 99 kts 214°
2026-04-25 11:53 54.20726 48.16343 3039 ft 99 kts 214°
2026-04-25 11:53 54.20077 48.15923 3296 ft 100 kts 214°
2026-04-25 11:53 54.19420 48.15499 3644 ft 101 kts 214°
2026-04-25 11:53 54.18767 48.15081 4035 ft 100 kts 214°
2026-04-25 11:54 54.18113 48.14664 4413 ft 101 kts 213°
2026-04-25 11:54 54.17453 48.14243 4778 ft 101 kts 214°
2026-04-25 11:54 54.16158 48.13418 5492 ft 101 kts 213°
2026-04-25 11:55 54.15495 48.12996 5846 ft 102 kts 213°
2026-04-25 11:55 54.14831 48.12573 6194 ft 102 kts 213°
2026-04-25 11:55 54.14177 48.12158 6512 ft 102 kts 213°
2026-04-25 11:55 54.13511 48.11733 6834 ft 103 kts 213°
2026-04-25 11:56 54.12839 48.11306 7177 ft 103 kts 213°
2026-04-25 11:56 54.12164 48.10876 7506 ft 104 kts 213°
2026-04-25 11:56 54.11486 48.10445 7853 ft 104 kts 214°
2026-04-25 11:56 54.10803 48.10012 8207 ft 105 kts 214°
2026-04-25 11:57 54.10117 48.09576 8572 ft 105 kts 214°
2026-04-25 11:57 54.09428 48.09139 8940 ft 106 kts 214°
2026-04-25 11:57 54.08737 48.08701 9306 ft 106 kts 214°
2026-04-25 11:57 54.08045 48.08261 9654 ft 107 kts 214°
2026-04-25 11:58 54.07347 48.07819 9986 ft 107 kts 214°
2026-04-25 11:58 54.06644 48.07372 10314 ft 108 kts 214°
2026-04-25 11:58 54.05933 48.06922 10642 ft 110 kts 214°
2026-04-25 11:58 54.05216 48.06467 10979 ft 111 kts 214°
2026-04-25 11:59 54.04491 48.06009 11323 ft 112 kts 214°
2026-04-25 11:59 54.03759 48.05546 11669 ft 113 kts 214°
2026-04-25 11:59 54.03022 48.05079 12025 ft 114 kts 214°
2026-04-25 12:00 54.01528 48.04134 12716 ft 116 kts 214°
2026-04-25 12:00 54.00779 48.03662 13096 ft 113 kts 213°
2026-04-25 12:00 53.99304 48.02731 13766 ft 113 kts 213°
2026-04-25 12:01 53.98563 48.02263 14080 ft 114 kts 213°
2026-04-25 12:01 53.97826 48.01797 14396 ft 115 kts 213°
2026-04-25 12:01 53.97072 48.01318 14642 ft 122 kts 213°
2026-04-25 12:01 53.96202 48.00751 14628 ft 145 kts 212°
2026-04-25 12:02 53.94115 47.99434 14641 ft 171 kts 210°
2026-04-25 12:02 53.92982 47.98730 14643 ft 175 kts 209°
2026-04-25 12:02 53.91833 47.98014 14641 ft 177 kts 209°
2026-04-25 12:03 53.90671 47.97287 14646 ft 178 kts 209°
2026-04-25 12:03 53.89503 47.96554 14650 ft 179 kts 209°
2026-04-25 12:03 53.88331 47.95818 14649 ft 180 kts 209°
2026-04-25 12:03 53.87156 47.95079 14651 ft 180 kts 209°
2026-04-25 12:04 53.85977 47.94340 14653 ft 181 kts 209°
2026-04-25 12:04 53.84797 47.93601 14653 ft 181 kts 209°
2026-04-25 12:04 53.83615 47.92860 14655 ft 181 kts 209°
2026-04-25 12:04 53.82433 47.92120 14654 ft 181 kts 209°
2026-04-25 12:05 53.81253 47.91381 14654 ft 181 kts 209°
2026-04-25 12:05 53.80070 47.90640 14654 ft 181 kts 209°
2026-04-25 12:05 53.78883 47.89899 14655 ft 182 kts 209°
2026-04-25 12:05 53.77696 47.89158 14654 ft 182 kts 209°
2026-04-25 12:06 53.76523 47.88425 14655 ft 182 kts 209°
2026-04-25 12:06 53.75335 47.87683 14654 ft 182 kts 209°
2026-04-25 12:06 53.74145 47.86941 14658 ft 182 kts 209°
2026-04-25 12:06 53.72957 47.86200 14663 ft 182 kts 209°
2026-04-25 12:07 53.71768 47.85459 14661 ft 182 kts 209°
2026-04-25 12:07 53.70576 47.84717 14659 ft 182 kts 209°
2026-04-25 12:07 53.69399 47.83933 14662 ft 182 kts 210°
2026-04-25 12:07 53.68219 47.83154 14647 ft 182 kts 210°
2026-04-25 12:08 53.67038 47.82381 14656 ft 182 kts 210°
2026-04-25 12:08 53.65857 47.81598 14657 ft 183 kts 210°
2026-04-25 12:08 53.64673 47.80810 14652 ft 183 kts 210°
2026-04-25 12:08 53.63484 47.80019 14651 ft 184 kts 210°
2026-04-25 12:09 53.62296 47.79231 14651 ft 184 kts 210°
2026-04-25 12:09 53.61105 47.78440 14650 ft 184 kts 210°
2026-04-25 12:09 53.59917 47.77653 14649 ft 183 kts 210°
2026-04-25 12:09 53.58730 47.76867 14651 ft 183 kts 210°
2026-04-25 12:10 53.57545 47.76082 14654 ft 183 kts 210°
2026-04-25 12:10 53.56361 47.75298 14656 ft 183 kts 210°
2026-04-25 12:10 53.55192 47.74524 14660 ft 183 kts 210°
2026-04-25 12:10 53.54012 47.73744 14658 ft 182 kts 210°
2026-04-25 12:11 53.52835 47.72966 14654 ft 181 kts 210°
2026-04-25 12:11 53.51659 47.72190 14656 ft 181 kts 210°
2026-04-25 12:11 53.50489 47.71418 14653 ft 181 kts 210°
2026-04-25 12:11 53.49317 47.70647 14653 ft 181 kts 210°
2026-04-25 12:12 53.48144 47.69874 14656 ft 181 kts 210°
2026-04-25 12:12 53.47399 47.69277 14657 ft 178 kts 216°
2026-04-25 12:12 53.45943 47.67960 14664 ft 178 kts 217°
2026-04-25 12:12 53.44857 47.66976 14664 ft 177 kts 217°
2026-04-25 12:13 53.43773 47.65995 14662 ft 177 kts 216°
2026-04-25 12:13 53.43056 47.65347 14663 ft 177 kts 217°
2026-04-25 12:13 53.41974 47.64370 14648 ft 177 kts 217°
2026-04-25 12:13 53.40893 47.63395 14667 ft 176 kts 217°
2026-04-25 12:14 53.39809 47.62415 14669 ft 177 kts 217°
2026-04-25 12:14 53.38724 47.61436 14670 ft 178 kts 217°
2026-04-25 12:14 53.37634 47.60454 14669 ft 178 kts 217°
2026-04-25 12:14 53.36541 47.59471 14675 ft 179 kts 217°
2026-04-25 12:15 53.35446 47.58484 14676 ft 179 kts 217°
2026-04-25 12:15 53.34348 47.57496 14681 ft 179 kts 217°
2026-04-25 12:15 53.33245 47.56504 14682 ft 179 kts 217°
2026-04-25 12:15 53.32145 47.55516 14680 ft 179 kts 217°
2026-04-25 12:16 53.31046 47.54530 14678 ft 179 kts 217°
2026-04-25 12:16 53.29952 47.53548 14679 ft 179 kts 217°
2026-04-25 12:16 53.28855 47.52565 14680 ft 179 kts 216°
2026-04-25 12:16 53.27759 47.51582 14680 ft 179 kts 217°
2026-04-25 12:17 53.26657 47.50595 14682 ft 180 kts 216°
2026-04-25 12:17 53.25552 47.49608 14681 ft 180 kts 216°
2026-04-25 12:17 53.24465 47.48635 14680 ft 180 kts 216°
2026-04-25 12:17 53.23364 47.47651 14681 ft 179 kts 216°
2026-04-25 12:18 53.22265 47.46668 14681 ft 179 kts 217°
2026-04-25 12:18 53.21164 47.45683 14679 ft 179 kts 217°
2026-04-25 12:18 53.20100 47.44739 14908 ft 167 kts 217°
2026-04-25 12:18 53.19103 47.43854 15164 ft 158 kts 218°
2026-04-25 12:19 53.17531 47.42453 15598 ft 149 kts 218°
2026-04-25 12:19 53.16296 47.41340 15688 ft 160 kts 218°
2026-04-25 12:19 53.15291 47.40437 15688 ft 168 kts 217°
2026-04-25 12:20 53.14242 47.39506 15689 ft 173 kts 217°
2026-04-25 12:20 53.13166 47.38552 15690 ft 177 kts 217°
2026-04-25 12:20 53.12072 47.37581 15694 ft 179 kts 217°
2026-04-25 12:20 53.10966 47.36598 15694 ft 181 kts 217°
2026-04-25 12:21 53.09852 47.35607 15690 ft 182 kts 217°
2026-04-25 12:21 53.08734 47.34617 15689 ft 182 kts 217°
2026-04-25 12:21 53.07616 47.33627 15689 ft 182 kts 217°
2026-04-25 12:21 53.06498 47.32636 15695 ft 182 kts 217°
2026-04-25 12:22 53.05378 47.31642 15698 ft 183 kts 217°
2026-04-25 12:22 53.04254 47.30647 15697 ft 183 kts 217°
2026-04-25 12:22 53.03131 47.29655 15697 ft 183 kts 217°
2026-04-25 12:22 53.02008 47.28661 15697 ft 183 kts 217°
2026-04-25 12:23 53.00884 47.27670 15701 ft 182 kts 216°
2026-04-25 12:23 52.99769 47.26686 15699 ft 181 kts 216°
2026-04-25 12:23 52.98655 47.25701 15698 ft 181 kts 216°
2026-04-25 12:23 52.97544 47.24720 15697 ft 181 kts 216°
2026-04-25 12:24 52.96433 47.23739 15706 ft 181 kts 217°
2026-04-25 12:24 52.95320 47.22758 15703 ft 181 kts 216°
2026-04-25 12:24 52.94690 47.22203 15703 ft 181 kts 216°
2026-04-25 12:24 52.93579 47.21224 15703 ft 181 kts 216°
2026-04-25 12:25 52.92468 47.20246 15691 ft 181 kts 217°
2026-04-25 12:25 52.91371 47.19282 15706 ft 181 kts 217°
2026-04-25 12:25 52.90256 47.18302 15709 ft 182 kts 217°
2026-04-25 12:25 52.89135 47.17317 15708 ft 182 kts 217°
2026-04-25 12:26 52.88014 47.16333 15707 ft 183 kts 217°
2026-04-25 12:26 52.86890 47.15347 15717 ft 183 kts 217°
2026-04-25 12:26 52.85769 47.14364 15712 ft 182 kts 217°
2026-04-25 12:26 52.84647 47.13381 15711 ft 182 kts 217°
2026-04-25 12:27 52.83525 47.12398 15715 ft 182 kts 217°
2026-04-25 12:27 52.82405 47.11417 15714 ft 182 kts 217°
2026-04-25 12:27 52.81284 47.10436 15713 ft 182 kts 217°
2026-04-25 12:27 52.80162 47.09456 15714 ft 182 kts 217°
2026-04-25 12:28 52.79041 47.08478 15715 ft 182 kts 217°
2026-04-25 12:28 52.77919 47.07499 15719 ft 182 kts 216°
2026-04-25 12:28 52.76795 47.06521 15725 ft 182 kts 217°
2026-04-25 12:28 52.75674 47.05543 15718 ft 182 kts 217°
2026-04-25 12:29 52.74551 47.04564 15721 ft 183 kts 217°
2026-04-25 12:29 52.73427 47.03584 15722 ft 183 kts 217°
2026-04-25 12:29 52.72302 47.02606 15721 ft 183 kts 217°
2026-04-25 12:29 52.71177 47.01626 15722 ft 183 kts 217°
2026-04-25 12:30 52.70055 47.00650 15725 ft 182 kts 217°
2026-04-25 12:30 52.68929 46.99673 15725 ft 183 kts 217°
2026-04-25 12:30 52.67805 46.98698 15715 ft 182 kts 217°
2026-04-25 12:30 52.66687 46.97728 15732 ft 182 kts 217°
2026-04-25 12:31 52.65565 46.96752 15736 ft 183 kts 217°
2026-04-25 12:31 52.64436 46.95774 15735 ft 184 kts 217°
2026-04-25 12:31 52.63302 46.94793 15732 ft 184 kts 217°
2026-04-25 12:31 52.62170 46.93814 15734 ft 184 kts 217°
2026-04-25 12:32 52.61052 46.92845 15733 ft 184 kts 217°
2026-04-25 12:32 52.59921 46.91867 15733 ft 184 kts 217°
2026-04-25 12:32 52.58788 46.90888 15734 ft 184 kts 217°
2026-04-25 12:32 52.57655 46.89909 15738 ft 184 kts 217°
2026-04-25 12:33 52.56523 46.88933 15741 ft 184 kts 217°
2026-04-25 12:33 52.55389 46.87955 15740 ft 184 kts 217°
2026-04-25 12:33 52.54255 46.86978 15740 ft 184 kts 217°
2026-04-25 12:33 52.53121 46.86000 15741 ft 184 kts 217°
2026-04-25 12:34 52.51987 46.85023 15736 ft 184 kts 217°
2026-04-25 12:34 52.50852 46.84046 15736 ft 184 kts 217°
2026-04-25 12:34 52.49716 46.83069 15737 ft 185 kts 216°
2026-04-25 12:34 52.48962 46.82421 15738 ft 185 kts 217°
2026-04-25 12:35 52.47441 46.81113 15746 ft 184 kts 217°
2026-04-25 12:35 52.46304 46.80137 15671 ft 185 kts 216°
2026-04-25 12:35 52.45175 46.79169 15509 ft 180 kts 216°
2026-04-25 12:35 52.44079 46.78229 15357 ft 176 kts 216°
2026-04-25 12:36 52.43001 46.77305 15183 ft 174 kts 217°
2026-04-25 12:36 52.41934 46.76391 15025 ft 172 kts 217°
2026-04-25 12:36 52.40873 46.75480 14849 ft 172 kts 217°
2026-04-25 12:36 52.39813 46.74572 14672 ft 172 kts 216°
2026-04-25 12:37 52.38749 46.73662 14500 ft 172 kts 216°
2026-04-25 12:37 52.37688 46.72755 14324 ft 172 kts 216°
2026-04-25 12:37 52.36631 46.71853 14149 ft 171 kts 216°
2026-04-25 12:37 52.35578 46.70955 13971 ft 170 kts 216°
2026-04-25 12:38 52.34533 46.70062 13800 ft 169 kts 216°
2026-04-25 12:38 52.33490 46.69172 13629 ft 169 kts 216°
2026-04-25 12:38 52.32452 46.68286 13442 ft 168 kts 216°
2026-04-25 12:38 52.31416 46.67404 13247 ft 167 kts 216°
2026-04-25 12:39 52.30386 46.66527 13051 ft 167 kts 216°
2026-04-25 12:39 52.29357 46.65651 12858 ft 166 kts 216°
2026-04-25 12:39 52.28332 46.64778 12672 ft 166 kts 216°
2026-04-25 12:39 52.27308 46.63907 12481 ft 166 kts 216°
2026-04-25 12:40 52.26301 46.63050 12295 ft 165 kts 216°
2026-04-25 12:40 52.25283 46.62186 12109 ft 165 kts 216°
2026-04-25 12:40 52.24268 46.61325 11921 ft 164 kts 216°
2026-04-25 12:40 52.23257 46.60467 11734 ft 164 kts 216°
2026-04-25 12:41 52.22250 46.59612 11552 ft 163 kts 216°
2026-04-25 12:41 52.21244 46.58760 11368 ft 163 kts 216°
2026-04-25 12:41 52.20241 46.57910 11186 ft 162 kts 216°
2026-04-25 12:41 52.19239 46.57059 10989 ft 163 kts 216°
2026-04-25 12:42 52.18229 46.56204 10772 ft 164 kts 216°
2026-04-25 12:42 52.17542 46.55623 10633 ft 165 kts 216°
2026-04-25 12:42 52.16193 46.54483 10362 ft 165 kts 216°
2026-04-25 12:42 52.15178 46.53628 10159 ft 164 kts 216°
2026-04-25 12:43 52.14169 46.52776 9962 ft 163 kts 216°
2026-04-25 12:43 52.13163 46.51927 9763 ft 163 kts 216°
2026-04-25 12:43 52.11141 46.50223 9346 ft 163 kts 216°
2026-04-25 12:44 52.10160 46.49399 9271 ft 155 kts 216°
2026-04-25 12:44 52.09215 46.48603 9186 ft 150 kts 217°
2026-04-25 12:44 52.07389 46.47064 9021 ft 146 kts 217°
2026-04-25 12:45 52.06488 46.46307 8936 ft 147 kts 217°
2026-04-25 12:45 52.05560 46.45524 8860 ft 152 kts 216°
2026-04-25 12:45 52.03651 46.43920 8701 ft 156 kts 216°
2026-04-25 12:46 52.02683 46.43106 8606 ft 158 kts 216°
2026-04-25 12:46 52.01662 46.42358 8259 ft 169 kts 205°
2026-04-25 12:46 52.00462 46.42146 7964 ft 178 kts 183°
2026-04-25 12:46 51.99233 46.42519 7707 ft 180 kts 175°
2026-04-25 12:47 51.98010 46.42969 7446 ft 180 kts 175°
2026-04-25 12:47 51.96796 46.43415 7181 ft 178 kts 174°
2026-04-25 12:47 51.95597 46.43851 6922 ft 175 kts 175°
2026-04-25 12:47 51.94410 46.44280 6666 ft 174 kts 175°
2026-04-25 12:48 51.93240 46.44704 6413 ft 171 kts 175°
2026-04-25 12:48 51.92083 46.45120 6158 ft 170 kts 175°
2026-04-25 12:48 51.90934 46.45534 5898 ft 168 kts 175°
2026-04-25 12:48 51.89791 46.45946 5629 ft 169 kts 175°
2026-04-25 12:49 51.88648 46.46359 5366 ft 168 kts 175°
2026-04-25 12:49 51.87503 46.46769 5107 ft 169 kts 175°
2026-04-25 12:49 51.86343 46.47185 4784 ft 173 kts 175°
2026-04-25 12:49 51.85156 46.47613 4440 ft 175 kts 175°
2026-04-25 12:50 51.83962 46.48044 4094 ft 176 kts 175°
2026-04-25 12:50 51.82762 46.48474 3754 ft 177 kts 175°
2026-04-25 12:50 51.81575 46.48644 3414 ft 166 kts 193°
2026-04-25 12:50 51.80563 46.48248 3101 ft 155 kts 211°
2026-04-25 12:51 51.79698 46.47400 2959 ft 135 kts 228°
2026-04-25 12:51 51.79090 46.46330 2774 ft 125 kts 243°
2026-04-25 12:51 51.78690 46.45131 2593 ft 119 kts 251°
2026-04-25 12:51 51.78343 46.43924 2411 ft 117 kts 251°
2026-04-25 12:52 51.78001 46.42734 2225 ft 117 kts 251°
2026-04-25 12:52 51.77664 46.41563 2044 ft 116 kts 250°
2026-04-25 12:52 51.77332 46.40422 1997 ft 107 kts 250°
2026-04-25 12:52 51.77024 46.39386 1993 ft 99 kts 251°
2026-04-25 12:53 51.76717 46.38429 1957 ft 95 kts 246°
2026-04-25 12:53 51.76304 46.37550 1871 ft 101 kts 236°
2026-04-25 12:53 51.75790 46.36743 1854 ft 105 kts 231°
2026-04-25 12:53 51.75198 46.36033 1844 ft 108 kts 223°
2026-04-25 12:54 51.74536 46.35429 1831 ft 109 kts 220°
2026-04-25 12:54 51.73812 46.34979 1834 ft 113 kts 210°
2026-04-25 12:54 51.73061 46.34595 1835 ft 113 kts 209°
2026-04-25 12:54 51.72341 46.34238 1840 ft 105 kts 209°
2026-04-25 12:55 51.71653 46.33898 1790 ft 103 kts 210°
2026-04-25 12:55 51.71433 46.33772 1771 ft 102 kts 214°
2026-04-25 12:55 51.70877 46.32497 1726 ft 77 kts 275°
2026-04-25 12:55 51.70904 46.31675 1670 ft 73 kts 273°
2026-04-25 12:56 51.70930 46.30836 1573 ft 77 kts 274°
2026-04-25 12:56 51.70959 46.29974 1460 ft 78 kts 274°
2026-04-25 12:56 51.70982 46.29095 1354 ft 78 kts 274°
2026-04-25 12:56 51.71002 46.28211 1241 ft 80 kts 274°
2026-04-25 12:57 51.71024 46.27302 1123 ft 82 kts 274°
2026-04-25 12:57 51.71045 46.26373 1001 ft 83 kts 274°
2026-04-25 12:57 51.71067 46.25451 894 ft 84 kts 275°
2026-04-25 12:57 51.71090 46.24496 778 ft 86 kts 270°
2026-04-25 12:58 51.71111 46.23528 663 ft 87 kts 271°
2026-04-25 12:58 51.71136 46.22547 541 ft 91 kts 273°
2026-04-25 12:58 51.71158 46.21521 425 ft 93 kts 272°
2026-04-25 12:58 51.71182 46.20481 305 ft 92 kts 272°
2026-04-25 12:59 51.71206 46.19445 175 ft 93 kts 272°
2026-04-25 12:59 51.71234 46.18572 102 ft 59 kts 274°
2026-04-25 12:59 51.71245 46.18071 101 ft 33 kts 270°
2026-04-25 12:59 51.71249 46.17780 103 ft 20 kts 272°
2026-04-25 13:00 51.71254 46.17599 102 ft 13 kts 274°
2026-04-25 13:00 51.71255 46.17555 102 ft 11 kts 271°
2026-04-25 13:00 51.71294 46.17410 102 ft 8 kts 351°
2026-04-25 13:00 51.71363 46.17413 101 ft 11 kts
2026-04-25 13:01 51.71372 46.17413 100 ft 0 kts
2026-04-25 13:01 51.71426 46.17417 100 ft 17 kts
2026-04-25 13:01 51.71497 46.17418 100 ft 12 kts 330°
2026-04-25 13:01 51.71519 46.17315 100 ft 9 kts 273°
2026-04-25 13:02 51.71526 46.17178 99 ft 6 kts 298°
2026-04-25 13:02 51.71559 46.17163 99 ft 8 kts 356°
2026-04-25 13:02 51.71586 46.17164 99 ft 0 kts